[Date Prev][Date Next][Thread Prev][Thread Next] - [Date Index][Thread Index][Author Index]

2 Line ISS Keps 4-14



ISS
1 25544U 98067A   04105.14612269  .00017753  00000-0  15985-3 0  5654
2 25544  51.6286 292.1360 0010856  30.0485 123.5828 15.68229600308260


----
Via the sarex mailing list at AMSAT.ORG courtesy of AMSAT-NA.
To unsubscribe, send "unsubscribe sarex" to Majordomo@amsat.org



AMSAT Top AMSAT Home